User: anonymous   Login
Location: Koussan�
(15.2012°N, 12.5548°W)
Time: 00:47:32
(UTC+00:00)
Language:

BREEZE-M DEB (TANK) - Orbit

View from above orbital plane
View from above orbital plane
View from above satellite
View from above satellite

Ground track
Ground track

The orbit data is extracted from the following two-line orbital elements,

1 37828U 11054C   21015.47593969  .00001222  00000-0  26724-3 0  9991
2 37828  49.3771 225.2265 5579263 102.2427 322.5658  4.67310342154371
Epoch (UTC): 15 January 2021 11:25:21
Eccentricity: 0.5579263
inclination: 49.3771°
perigee height: 302 km
apogee height: 17165 km
right ascension of ascending node: 225.2265°
argument of perigee: 102.2427°
revolutions per day: 4.67310342
mean anomaly at epoch: 322.5658°
orbit number at epoch: 15437

The dashed part of the orbit path shows where the satellite is in the earth's shadow,  

DLR